Flag for U.S.A. Weather past 2 weeks in Ocala, Florida, U.S.A.

Now
61 °F

Low clouds.


Feels Like: 61 °F
Forecast: 62 / 80 °F
Wind: 3 mph from Southwest

Location: Ocala Municipal

Current Time: Apr 1, 2015 at 4:26:23 AM

Latest Report: Apr 1, 2015 at 3:55 AM


Visibility: 0 mi

Pressure: 30.07 "Hg

Humidity: 94%

Dew point: 59 °F

Location of OcalaLocation

Historic Weather in Ocala — Graph

°F

Ocala temperature yesterday

Maximum temperature yesterday: 81 °F (at 2:50 PM)
Minimum temperature yesterday: 54 °F (at 3:55 AM)
Average temperature yesterday: 63 °F

Past Weeks' High & Low Weather Summary

 TemperatureHumidityPressure
High86 °F (Mar 18, 3:50 PM)100% (Mar 27, 9:50 AM)30.39 "Hg (Mar 27, 9:50 AM)
Low36 °F (Mar 27, 9:50 AM)23% (Mar 29, 4:50 PM)29.79 "Hg (Mar 27, 4:50 PM)
Average64 °F77%30.06 "Hg
* Reported Mar 17 3:15 AM — Apr 1 3:35 AM, Ocala, Weather by CustomWeather, © 2015

Note: Actual official high and low records may vary slightly from our data, if they occured in-between our weather recording intervals... More about our weather records

Advertising

Ocala weather history for previous 24 hours

 ConditionsComfort  
Time TempWeatherWind HumidityBarometerVisibility
3:35 AM
Wed, Apr 1
61 °FLow clouds.No wind94%30.07 "Hg1 mi
3:15 AM61 °FLow clouds.5 mph94%30.07 "Hg1 mi
2:55 AM63 °FLow clouds.6 mph88%30.08 "Hg1 mi
2:35 AM63 °FLow clouds.6 mph94%30.08 "Hg1 mi
2:15 AM63 °FLow clouds.3 mph94%30.09 "Hg1 mi
1:55 AM63 °FPassing clouds.3 mph94%30.10 "Hg1 mi
1:35 AM63 °FClear.3 mph94%30.10 "Hg6 mi
1:15 AM63 °FClear.5 mph94%30.11 "Hg9 mi
12:55 AM64 °FClear.6 mph88%30.10 "Hg10 mi
12:35 AM64 °FClear.7 mph88%30.10 "Hg10 mi
12:15 AM64 °FClear.7 mph88%30.10 "Hg8 mi
11:55 PM
Tue, Mar 31
63 °FClear.7 mph94%30.10 "Hg6 mi
11:35 PM63 °FClear.6 mph94%30.11 "Hg8 mi
10:55 PM64 °FClear.7 mph94%30.11 "Hg10 mi
10:35 PM64 °FClear.7 mph94%30.10 "Hg10 mi
10:15 PM64 °FClear.8 mph94%30.10 "Hg10 mi
9:55 PM64 °FClear.7 mph88%30.10 "Hg10 mi
9:35 PM66 °FClear.8 mph88%30.09 "Hg10 mi
9:15 PM66 °FClear.7 mph88%30.09 "Hg10 mi
8:55 PM68 °FClear.7 mph78%30.09 "Hg10 mi
8:35 PM70 °FSunny.7 mph73%30.09 "Hg10 mi
8:15 PM70 °FSunny.7 mph73%30.08 "Hg10 mi
7:55 PM70 °FSunny.8 mph73%30.07 "Hg10 mi
6:50 PM73 °FPassing clouds.14 mph65%30.06 "Hg10 mi
5:50 PM79 °FScattered clouds.12 mph54%30.05 "Hg10 mi
4:50 PM79 °FPartly sunny.12 mph54%30.06 "Hg10 mi
3:50 PM81 °FPartly sunny.16 mph51%30.07 "Hg10 mi
2:50 PM81 °FPartly sunny.12 mph54%30.09 "Hg10 mi
1:50 PM79 °FPartly sunny.12 mph51%30.11 "Hg10 mi
12:50 PM79 °FBroken clouds.9 mph58%30.14 "Hg10 mi
11:50 AM75 °FBroken clouds.8 mph65%30.16 "Hg10 mi
10:50 AM73 °FPartly sunny.8 mph69%30.16 "Hg10 mi
9:50 AM70 °FSunny.8 mph78%30.16 "Hg10 mi
8:50 AM61 °FSunny.No wind88%30.16 "Hg10 mi
7:50 AM54 °FFog.No wind94%30.15 "Hg1 mi
6:50 AM54 °FFog.No wind88%30.14 "Hg1 mi
6:35 AM54 °FDense fog.3 mph88%30.14 "Hg1 mi
6:15 AM54 °FClear.No wind94%30.13 "Hg2 mi
5:55 AM54 °FClear.No wind94%30.12 "Hg5 mi
5:35 AM54 °FDense fog.No wind94%30.12 "Hg1 mi
5:15 AM54 °FDense fog.3 mph94%30.13 "Hg1 mi
4:55 AM54 °FClear.3 mph88%30.13 "Hg10 mi
4:35 AM54 °FClear.No wind94%30.13 "Hg7 mi
4:15 AM54 °FClear.No wind94%30.13 "Hg7 mi
Weather by CustomWeather, © 2015

See weather overviewHow to use our weather pages